Torna al catalogo

SCOUT G-1 DEB

AttivoPO
NORAD 18365·DEBRIS·🇺🇸 United States

Lanciato Sep 16, 1987 da Vandenberg Space Force Base

Loading…

Prossimi Passaggi (prossime 24 ore)

TLE

AggiornatoSource: Space-Track

Epoca: Sep 14, 2026, 11:32 UTC

1 18365U 87080E   26257.48084311  .00000289  00000-0  40276-3 0  9998
2 18365  90.3509  72.7712 0106660 148.0321 240.1901 13.53431370919663

Traccia SCOUT G-1 DEB in tempo reale con AllMySat

Download on the App Store